Time,TemperatureF,DewpointF,PressureIn,WindDirection,WindDirectionDegrees,WindSpeedMPH,WindSpeedGustMPH,Humidity,HourlyPrecipIn,Conditions,Clouds,dailyrainin,SoftwareType,DateUTC
2013-07-06 00:02:00,79.0,77.0,26.41,NE,52,15.0,19.0,94,0.00,,,0.00,,2013-07-06 04:02:00,
2013-07-06 00:12:00,79.0,77.0,26.41,NE,48,19.0,22.0,94,0.00,,,0.00,,2013-07-06 04:12:00,
2013-07-06 00:22:00,79.0,77.0,26.41,NE,48,20.0,23.0,94,0.00,,,0.00,,2013-07-06 04:22:00,
2013-07-06 00:33:00,79.0,77.0,26.41,NE,53,20.0,23.0,93,0.00,,,0.00,,2013-07-06 04:33:00,
2013-07-06 00:43:00,79.0,77.0,26.41,NE,54,18.0,24.0,93,0.00,,,0.00,,2013-07-06 04:43:00,
2013-07-06 00:53:00,79.0,77.0,26.41,NE,54,18.0,21.0,93,0.00,,,0.00,,2013-07-06 04:53:00,
2013-07-06 01:02:00,79.0,77.0,26.41,NE,50,19.0,21.0,93,0.00,,,0.00,,2013-07-06 05:02:00,
2013-07-06 01:12:00,80.0,78.0,26.41,NE,52,18.0,22.0,93,0.00,,,0.00,,2013-07-06 05:12:00,
2013-07-06 01:22:00,80.0,78.0,26.41,NE,44,19.0,22.0,93,0.00,,,0.00,,2013-07-06 05:22:00,
2013-07-06 01:33:00,80.0,78.0,26.41,NE,46,17.0,21.0,93,0.00,,,0.00,,2013-07-06 05:33:00,
2013-07-06 01:42:00,80.0,78.0,26.41,NE,48,17.0,21.0,93,0.00,,,0.00,,2013-07-06 05:42:00,
2013-07-06 01:53:00,80.0,77.0,26.41,NE,52,17.0,21.0,92,0.00,,,0.00,,2013-07-06 05:53:00,
2013-07-06 02:02:00,79.0,76.0,26.41,NE,41,18.0,21.0,92,0.00,,,0.00,,2013-07-06 06:02:00,
2013-07-06 02:12:00,80.0,77.0,26.41,NE,46,20.0,22.0,92,0.00,,,0.00,,2013-07-06 06:12:00,
2013-07-06 02:22:00,80.0,77.0,26.41,NE,36,18.0,22.0,92,0.00,,,0.00,,2013-07-06 06:22:00,
2013-07-06 02:34:00,80.0,77.0,26.41,NE,38,19.0,22.0,91,0.00,,,0.00,,2013-07-06 06:34:00,
2013-07-06 02:43:00,80.0,77.0,26.41,NNE,23,19.0,23.0,90,0.00,,,0.00,,2013-07-06 06:43:00,
2013-07-06 02:53:00,80.0,76.0,26.41,NNE,16,17.0,23.0,89,0.00,,,0.00,,2013-07-06 06:53:00,
2013-07-06 03:02:00,80.0,76.0,26.41,NNE,26,20.0,23.0,88,0.00,,,0.00,,2013-07-06 07:02:00,
2013-07-06 03:12:00,80.0,76.0,26.41,NNE,27,17.0,23.0,87,0.00,,,0.00,,2013-07-06 07:12:00,
2013-07-06 03:22:00,80.0,75.0,26.41,NNE,28,19.0,24.0,86,0.00,,,0.00,,2013-07-06 07:22:00,
2013-07-06 03:33:00,81.0,77.0,26.41,NNE,25,15.0,23.0,87,0.00,,,0.00,,2013-07-06 07:33:00,
2013-07-06 03:44:00,81.0,77.0,26.41,NNE,29,18.0,20.0,87,0.00,,,0.00,,2013-07-06 07:44:00,
2013-07-06 03:52:00,81.0,77.0,26.41,NNE,25,16.0,21.0,87,0.00,,,0.00,,2013-07-06 07:52:00,
2013-07-06 04:02:00,81.0,77.0,26.41,NE,40,18.0,22.0,88,0.00,,,0.00,,2013-07-06 08:02:00,
2013-07-06 04:12:00,80.0,76.0,26.41,NE,48,22.0,29.0,87,0.00,,,0.00,,2013-07-06 08:12:00,
2013-07-06 04:21:00,80.0,76.0,26.41,NE,38,22.0,26.0,88,0.00,,,0.00,,2013-07-06 08:21:00,
2013-07-06 04:34:00,80.0,76.0,26.41,NE,43,19.0,25.0,89,0.00,,,0.00,,2013-07-06 08:34:00,
2013-07-06 04:43:00,81.0,77.0,26.41,NE,52,19.0,25.0,89,0.01,,,0.01,,2013-07-06 08:43:00,
2013-07-06 04:54:00,80.0,77.0,26.41,NE,56,22.0,24.0,90,0.01,,,0.01,,2013-07-06 08:54:00,
2013-07-06 05:02:00,80.0,77.0,26.41,NE,56,22.0,26.0,92,0.01,,,0.01,,2013-07-06 09:02:00,
2013-07-06 05:11:00,80.0,77.0,26.41,ENE,65,23.0,27.0,91,0.01,,,0.01,,2013-07-06 09:11:00,
2013-07-06 05:22:00,80.0,77.0,26.41,ENE,59,20.0,25.0,91,0.01,,,0.01,,2013-07-06 09:22:00,
2013-07-06 05:33:00,80.0,77.0,26.41,NE,48,21.0,24.0,91,0.01,,,0.01,,2013-07-06 09:33:00,
2013-07-06 05:43:00,80.0,77.0,26.41,NE,42,23.0,29.0,91,0.00,,,0.01,,2013-07-06 09:43:00,
2013-07-06 05:52:00,80.0,77.0,26.41,NE,48,21.0,28.0,90,0.00,,,0.01,,2013-07-06 09:52:00,
2013-07-06 06:02:00,80.0,77.0,26.41,NE,55,20.0,26.0,90,0.00,,,0.01,,2013-07-06 10:02:00,
2013-07-06 06:11:00,80.0,76.0,26.41,NE,48,21.0,26.0,89,0.00,,,0.01,,2013-07-06 10:11:00,
2013-07-06 06:22:00,80.0,76.0,26.41,NE,49,25.0,27.0,89,0.00,,,0.01,,2013-07-06 10:22:00,
2013-07-06 06:33:00,80.0,76.0,26.41,NE,54,23.0,28.0,89,0.00,,,0.01,,2013-07-06 10:33:00,
2013-07-06 06:42:00,80.0,76.0,26.41,NE,46,24.0,27.0,89,0.00,,,0.01,,2013-07-06 10:42:00,
2013-07-06 06:53:00,80.0,76.0,26.41,NE,49,23.0,27.0,89,0.00,,,0.01,,2013-07-06 10:53:00,
2013-07-06 07:01:00,80.0,76.0,26.41,NE,45,25.0,28.0,89,0.00,,,0.01,,2013-07-06 11:01:00,
2013-07-06 07:11:00,80.0,76.0,26.41,NE,44,21.0,28.0,89,0.00,,,0.01,,2013-07-06 11:11:00,
2013-07-06 07:22:00,80.0,76.0,26.41,NE,46,22.0,28.0,89,0.00,,,0.01,,2013-07-06 11:22:00,
2013-07-06 07:33:00,80.0,76.0,26.41,NE,46,22.0,28.0,89,0.00,,,0.01,,2013-07-06 11:33:00,
2013-07-06 07:43:00,80.0,76.0,26.41,NE,43,23.0,27.0,89,0.00,,,0.01,,2013-07-06 11:43:00,
2013-07-06 07:53:00,80.0,76.0,26.41,NE,48,24.0,29.0,89,0.00,,,0.01,,2013-07-06 11:53:00,
2013-07-06 08:12:00,81.0,77.0,26.41,NE,48,25.0,29.0,89,0.00,,,0.01,,2013-07-06 12:12:00,
2013-07-06 08:22:00,81.0,78.0,26.41,NE,34,20.0,26.0,90,0.00,,,0.01,,2013-07-06 12:22:00,
2013-07-06 08:33:00,81.0,78.0,26.41,NNE,27,19.0,25.0,90,0.00,,,0.01,,2013-07-06 12:33:00,
2013-07-06 08:43:00,81.0,77.0,26.41,NE,43,24.0,28.0,89,0.00,,,0.01,,2013-07-06 12:43:00,
2013-07-06 08:52:00,81.0,77.0,26.41,NE,44,22.0,28.0,89,0.00,,,0.01,,2013-07-06 12:52:00,
2013-07-06 09:01:00,81.0,77.0,26.41,NE,38,19.0,25.0,89,0.00,,,0.01,,2013-07-06 13:01:00,
2013-07-06 09:12:00,81.0,77.0,26.41,NE,49,21.0,26.0,88,0.00,,,0.01,,2013-07-06 13:12:00,
2013-07-06 09:22:00,81.0,77.0,26.41,NE,42,25.0,28.0,88,0.00,,,0.01,,2013-07-06 13:22:00,
2013-07-06 09:33:00,81.0,77.0,26.41,NE,46,23.0,27.0,88,0.00,,,0.01,,2013-07-06 13:33:00,
2013-07-06 09:43:00,81.0,77.0,26.41,NE,41,23.0,26.0,88,0.00,,,0.01,,2013-07-06 13:43:00,
2013-07-06 09:52:00,81.0,77.0,26.41,NE,36,25.0,28.0,88,0.00,,,0.01,,2013-07-06 13:52:00,
2013-07-06 10:02:00,81.0,77.0,26.41,NNE,30,21.0,26.0,88,0.00,,,0.01,,2013-07-06 14:02:00,
2013-07-06 10:12:00,81.0,77.0,26.41,NE,42,18.0,25.0,88,0.00,,,0.01,,2013-07-06 14:12:00,
2013-07-06 10:22:00,81.0,77.0,26.41,NNE,31,20.0,24.0,87,0.00,,,0.01,,2013-07-06 14:22:00,
2013-07-06 10:34:00,81.0,77.0,26.41,NE,39,21.0,26.0,87,0.00,,,0.01,,2013-07-06 14:34:00,
2013-07-06 10:42:00,81.0,76.0,26.41,NE,44,22.0,26.0,86,0.00,,,0.01,,2013-07-06 14:42:00,
2013-07-06 10:53:00,82.0,78.0,26.41,NE,45,19.0,26.0,87,0.00,,,0.01,,2013-07-06 14:53:00,
2013-07-06 11:02:00,82.0,77.0,26.41,NE,42,23.0,25.0,86,0.00,,,0.01,,2013-07-06 15:02:00,
2013-07-06 11:12:00,82.0,77.0,26.41,NE,38,21.0,25.0,86,0.00,,,0.01,,2013-07-06 15:12:00,
2013-07-06 11:22:00,82.0,77.0,26.41,NNE,29,23.0,26.0,85,0.00,,,0.01,,2013-07-06 15:22:00,
2013-07-06 11:33:00,83.0,78.0,26.41,NE,44,20.0,25.0,85,0.00,,,0.01,,2013-07-06 15:33:00,
2013-07-06 11:43:00,84.0,79.0,26.41,NE,38,23.0,25.0,85,0.00,,,0.01,,2013-07-06 15:43:00,
2013-07-06 11:53:00,85.0,-99.9,26.41,NNE,23,20.0,25.0,-999,0.00,,,0.01,,2013-07-06 15:53:00,
2013-07-06 12:09:00,86.0,-99.9,26.41,NE,49,19.0,24.0,-999,0.00,,,0.01,,2013-07-06 16:09:00,
2013-07-06 12:16:00,87.0,-99.9,26.41,NE,46,22.0,24.0,-999,0.00,,,0.01,,2013-07-06 16:16:00,
2013-07-06 12:30:00,87.0,-99.9,26.41,NE,36,18.0,24.0,-999,0.00,,,0.01,,2013-07-06 16:30:00,
2013-07-06 12:50:00,87.0,-99.9,26.41,NE,41,20.0,24.0,-999,0.00,,,0.01,,2013-07-06 16:50:00,
2013-07-06 13:14:00,87.0,78.0,26.41,NE,36,18.0,25.0,76,0.00,,,0.01,,2013-07-06 17:14:00,
2013-07-06 13:23:00,88.0,80.0,26.41,NE,40,20.0,24.0,78,0.00,,,0.01,,2013-07-06 17:23:00,
2013-07-06 13:32:00,89.0,80.0,26.41,NE,43,23.0,25.0,75,0.00,,,0.01,,2013-07-06 17:32:00,
2013-07-06 13:43:00,89.0,80.0,26.41,NE,45,20.0,24.0,74,0.00,,,0.01,,2013-07-06 17:43:00,
2013-07-06 13:52:00,89.0,79.0,26.41,NE,42,20.0,24.0,73,0.00,,,0.01,,2013-07-06 17:52:00,
2013-07-06 14:01:00,89.0,80.0,26.41,NE,37,22.0,25.0,74,0.00,,,0.01,,2013-07-06 18:01:00,
2013-07-06 14:34:00,88.0,79.0,26.41,NE,34,21.0,26.0,74,0.00,,,0.01,,2013-07-06 18:34:00,
2013-07-06 14:45:00,88.0,79.0,26.41,NNE,26,20.0,25.0,74,0.00,,,0.01,,2013-07-06 18:45:00,
2013-07-06 14:54:00,88.0,79.0,26.41,NE,37,20.0,26.0,74,0.00,,,0.01,,2013-07-06 18:54:00,
2013-07-06 15:12:00,87.0,78.0,26.41,NNE,30,20.0,27.0,74,0.00,,,0.01,,2013-07-06 19:12:00,
2013-07-06 15:23:00,88.0,79.0,26.41,NNE,13,18.0,26.0,75,0.00,,,0.01,,2013-07-06 19:23:00,
2013-07-06 15:30:00,87.0,78.0,26.41,NNE,31,19.0,25.0,74,0.00,,,0.01,,2013-07-06 19:30:00,
2013-07-06 15:43:00,87.0,78.0,26.41,NNE,29,18.0,26.0,74,0.00,,,0.01,,2013-07-06 19:43:00,
2013-07-06 15:53:00,87.0,78.0,26.41,NNE,19,0.0,26.0,75,0.00,,,0.01,,2013-07-06 19:53:00,
2013-07-06 16:14:00,87.0,78.0,26.41,NE,38,17.0,21.0,74,0.00,,,0.01,,2013-07-06 20:14:00,
2013-07-06 16:31:00,88.0,78.0,26.41,NNE,33,18.0,24.0,73,0.00,,,0.01,,2013-07-06 20:31:00,
2013-07-06 16:54:00,87.0,78.0,26.41,NNE,31,19.0,24.0,74,0.00,,,0.01,,2013-07-06 20:54:00,
2013-07-06 17:20:00,88.0,78.0,26.41,NNE,31,19.0,25.0,72,0.00,,,0.01,,2013-07-06 21:20:00,
2013-07-06 17:44:00,88.0,78.0,26.41,NE,38,22.0,25.0,73,0.00,,,0.01,,2013-07-06 21:44:00,
2013-07-06 17:54:00,87.0,77.0,26.41,NNE,27,19.0,24.0,72,0.00,,,0.01,,2013-07-06 21:54:00,
2013-07-06 18:00:00,87.0,77.0,26.41,NNE,27,19.0,26.0,72,0.00,,,0.01,,2013-07-06 22:00:00,
2013-07-06 18:14:00,88.0,77.0,26.41,NE,36,19.0,24.0,71,0.00,,,0.01,,2013-07-06 22:14:00,
2013-07-06 18:23:00,88.0,77.0,26.41,NE,41,21.0,24.0,70,0.00,,,0.01,,2013-07-06 22:23:00,
2013-07-06 18:33:00,89.0,77.0,26.41,NE,55,22.0,25.0,69,0.00,,,0.01,,2013-07-06 22:33:00,
2013-07-06 18:44:00,88.0,76.0,26.41,NE,48,18.0,24.0,67,0.00,,,0.01,,2013-07-06 22:44:00,
2013-07-06 19:01:00,88.0,77.0,26.41,NE,36,19.0,22.0,70,0.00,,,0.01,,2013-07-06 23:01:00,
2013-07-06 19:10:00,88.0,76.0,26.41,NE,40,16.0,23.0,68,0.00,,,0.01,,2013-07-06 23:10:00,
2013-07-06 19:23:00,88.0,76.0,26.41,NE,50,19.0,22.0,68,0.00,,,0.01,,2013-07-06 23:23:00,
2013-07-06 19:45:00,87.0,76.0,26.41,NE,42,17.0,20.0,69,0.00,,,0.01,,2013-07-06 23:45:00,
2013-07-06 20:01:00,86.0,76.0,26.41,NE,48,12.0,18.0,73,0.00,,,0.01,,2013-07-07 00:01:00,
2013-07-06 20:11:00,83.0,75.0,26.41,NNE,31,11.0,17.0,77,0.00,,,0.01,,2013-07-07 00:11:00,
2013-07-06 20:16:00,85.0,76.0,26.41,NNE,30,13.0,17.0,74,0.00,,,0.01,,2013-07-07 00:16:00,
2013-07-06 20:24:00,84.0,75.0,26.41,NNE,17,12.0,17.0,75,0.00,,,0.01,,2013-07-07 00:24:00,
2013-07-06 20:53:00,83.0,75.0,26.41,NNE,20,13.0,17.0,77,0.00,,,0.01,,2013-07-07 00:53:00,
2013-07-06 20:54:00,83.0,75.0,26.41,NNE,31,11.0,17.0,77,0.00,,,0.01,,2013-07-07 00:54:00,
2013-07-06 21:33:00,83.0,75.0,26.41,NNE,20,13.0,17.0,77,0.00,,,0.01,,2013-07-07 01:33:00,
2013-07-06 21:44:00,83.0,75.0,26.41,NNE,20,13.0,17.0,77,0.00,,,0.01,,2013-07-07 01:44:00,
2013-07-06 23:31:00,82.0,74.0,26.41,NNE,21,12.0,16.0,78,0.00,,,0.01,,2013-07-07 03:31:00,